UGUISU

Last updated on Mon Oct 11 2021 23:04:52 GMT+0000 (Coordinated Universal Time)

1 44330U 98067QF 21279.86920406 .06149552 12290-4 92993-3 0 9995 2 44330 51.6114 61.5571 0010398 309.1628 50.8471 16.33273521131833

Satellite not in orbit